CW7992 Weather Reports


Display with metric or nautical units.
time (UTC)temp
F
wind
direction
speed
MPH
gust
MPH
rain 1hr
in
rain 24hr
in
rain mn
in
humidity
%
barometer
mb
20260507151111 57 304 2.0 8.0 0.00 0.00 0.00 63 17.5
20260507150111 56 299 1.0 2.0 0.00 0.00 0.00 64 17.5
20260507145111 57 303 2.0 5.0 0.00 0.00 0.00 64 17.5
20260507144112 58 151 3.0 5.0 0.00 0.00 0.00 54 17.4
20260507143111 58 97 0.0 1.0 0.00 0.00 0.00 56 17.4
20260507142111 58 117 1.0 4.0 0.00 0.00 0.00 56 17.3
20260507141111 58 47 0.0 2.0 0.00 0.00 0.00 56 17.2
20260507140112 58 22 0.0 2.0 0.00 0.00 0.00 57 17.3
20260507135111 58 65 1.0 2.0 0.00 0.00 0.00 59 17.3
20260507134112 58 67 0.0 2.0 0.00 0.00 0.00 56 17.3
20260507133111 58 45 1.0 2.0 0.00 0.00 0.00 59 17.2
20260507132111 58 32 0.0 4.0 0.00 0.00 0.00 56 17.2
20260507131111 58 86 0.0 1.0 0.00 0.00 0.00 56 17.1
20260507130111 58 52 0.0 2.0 0.00 0.00 0.00 53 17.1
20260507125111 59 46 2.0 5.0 0.00 0.00 0.00 53 17.0
20260507124111 58 150 1.0 2.0 0.00 0.00 0.00 54 17.0
20260507123112 58 26 1.0 2.0 0.00 0.00 0.00 54 16.9
20260507122111 59 80 0.0 2.0 0.00 0.00 0.00 55 16.9
20260507121112 59 175 0.0 5.0 0.00 0.00 0.00 56 16.8
20260507120111 60 142 0.0 2.0 0.00 0.00 0.00 54 16.8
20260507115112 62 190 1.0 5.0 0.00 0.00 0.00 45 16.7
20260507114111 62 182 2.0 6.0 0.00 0.00 0.00 47 16.7
20260507113111 64 110 2.0 6.0 0.00 0.00 0.00 44 16.7
20260507112111 62 67 1.0 4.0 0.00 0.00 0.00 46 16.7
20260507111111 62 77 0.0 5.0 0.00 0.00 0.00 47 16.7
20260507110111 62 211 1.0 7.0 0.00 0.00 0.00 45 16.8
20260507105111 61 171 1.0 2.0 0.00 0.00 0.00 50 16.8
20260507103111 60 32 5.0 7.0 0.00 0.00 0.00 51 16.8
20260507102111 61 63 2.0 7.0 0.00 0.00 0.00 53 16.8
20260507101111 61 217 0.0 0.0 0.00 0.00 0.00 48 16.8
20260507100111 61 169 2.0 5.0 0.00 0.00 0.00 51 16.7
20260507095111 60 317 2.0 5.0 0.00 0.00 0.00 49 16.7
20260507092111 59 19 1.0 2.0 0.00 0.00 0.00 46 16.6
20260507091111 58 210 0.0 1.0 0.00 0.00 0.00 53 16.5
20260507090111 58 119 0.0 6.0 0.00 0.00 0.00 57 16.6
20260507083111 56 58 1.0 2.0 0.00 0.00 0.00 63 16.4
20260507082111 56 56 0.0 5.0 0.00 0.00 0.00 63 16.3
20260507081111 55 92 1.0 5.0 0.00 0.00 0.00 64 16.2
20260507075111 53 202 0.0 0.0 0.00 0.00 0.00 69 16.2
20260507074111 53 169 0.0 0.0 0.00 0.00 0.00 73 16.1
20260507073111 52 189 0.0 0.0 0.00 0.00 0.00 75 16.0
20260507072111 51 41 0.0 2.0 0.00 0.00 0.00 78 16.1
20260507071111 50 224 0.0 4.0 0.00 0.00 0.00 84 16.0
20260507070111 50 54 0.0 2.0 0.00 0.00 0.00 85 16.1
20260507065111 48 37 2.0 2.0 0.00 0.00 0.00 89 16.0
20260507064111 48 46 1.0 2.0 0.00 0.00 0.00 91 15.9
20260507063111 47 37 0.0 0.0 0.00 0.00 0.00 92 15.9
20260507062111 46 30 0.0 2.0 0.00 0.00 0.00 93 15.8
20260507061111 45 32 0.0 4.0 0.00 0.00 0.00 93 15.7
20260507060111 44 40 2.0 5.0 0.00 0.00 0.00 93 15.6
20260507055111 43 46 2.0 4.0 0.00 0.00 0.00 94 15.6
20260507054111 42 42 2.0 4.0 0.00 0.00 0.00 94 15.6
20260507053111 42 31 2.0 4.0 0.00 0.00 0.00 94 15.5
20260507052111 41 38 2.0 4.0 0.00 0.00 0.00 94 15.5
20260507051111 40 28 0.0 1.0 0.00 0.00 0.00 93 15.4
20260507050111 38 28 0.0 0.0 0.00 0.00 0.00 93 15.3
20260507045111 37 28 0.0 0.0 0.00 0.00 0.00 93 15.2
20260507044111 37 28 0.0 0.0 0.00 0.00 0.00 93 15.1
20260507043111 37 28 0.0 0.0 0.00 0.00 0.00 93 14.9
20260507035111 36 30 0.0 0.0 0.00 0.00 0.00 92 14.6
20260507034111 37 30 0.0 0.0 0.00 0.00 0.00 92 14.5
20260507033111 37 30 0.0 0.0 0.00 0.00 0.00 92 14.4
20260507032111 37 30 0.0 0.0 0.00 0.00 0.00 92 14.4
20260507030111 37 30 0.0 1.0 0.00 0.00 0.00 92 14.3
20260507025111 37 30 0.0 0.0 0.00 0.00 0.00 92 14.2
20260507022111 39 30 0.0 2.0 0.00 0.00 0.00 92 14.0
20260507021111 39 15 0.0 2.0 0.00 0.00 0.00 92 14.0
20260507020111 38 52 0.0 0.0 0.00 0.00 0.00 91 13.8
20260507015111 38 52 0.0 0.0 0.00 0.00 0.00 91 13.7
20260507013111 39 52 0.0 0.0 0.00 0.00 0.00 91 13.5
20260507012111 39 52 0.0 0.0 0.00 0.00 0.00 91 13.4
20260507011111 40 52 0.0 0.0 0.00 0.00 0.00 91 13.4
20260507010111 40 52 0.0 0.0 0.00 0.00 0.00 91 13.4
20260507005111 40 52 0.0 0.0 0.00 0.00 0.00 91 13.3
20260507004111 40 52 0.0 0.0 0.00 0.00 0.00 91 13.3
20260507003111 40 52 0.0 0.0 0.00 0.00 0.00 90 13.3
20260507001111 41 52 0.0 0.0 0.00 0.00 0.00 90 13.3
20260507000111 41 52 0.0 0.0 0.00 0.00 0.00 90 13.3
20260506235111 42 52 0.0 0.0 0.00 0.00 0.00 90 13.3
20260506234111 42 52 0.0 0.0 0.00 0.00 0.00 89 13.3
20260506233111 42 52 0.0 0.0 0.00 0.00 0.00 89 13.3
20260506232111 42 52 0.0 0.0 0.00 0.00 0.00 89 13.2
20260506231111 42 52 0.0 0.0 0.00 0.00 0.00 89 13.2
20260506230111 42 52 0.0 0.0 0.00 0.00 0.00 88 13.2
20260506225111 42 52 0.0 0.0 0.00 0.00 0.00 88 13.1
20260506224111 42 52 0.0 1.0 0.00 0.00 0.00 88 13.0
20260506223111 43 52 0.0 1.0 0.00 0.00 0.00 88 13.0
20260506222111 42 53 0.0 0.0 0.00 0.00 0.00 87 13.0
20260506220111 43 53 0.0 0.0 0.00 0.00 0.00 86 12.9
20260506215111 43 53 0.0 0.0 0.00 0.00 0.00 86 12.8
20260506214111 43 53 0.0 0.0 0.00 0.00 0.00 85 12.6
20260506211111 45 53 0.0 0.0 0.00 0.00 0.00 82 12.4
20260506210111 45 53 0.0 0.0 0.00 0.00 0.00 81 12.3
20260506205111 45 53 0.0 0.0 0.00 0.00 0.00 80 12.3
20260506204111 46 53 0.0 0.0 0.00 0.00 0.00 79 12.2
20260506203111 47 53 0.0 0.0 0.00 0.00 0.00 78 12.1
20260506202111 47 53 0.0 1.0 0.00 0.00 0.00 76 12.0
20260506201111 48 59 0.0 1.0 0.00 0.00 0.00 76 12.0
20260506200111 48 59 0.0 0.0 0.00 0.00 0.00 75 12.0
20260506195111 49 59 0.0 2.0 0.00 0.00 0.00 74 11.9
20260506194111 49 59 1.0 1.0 0.00 0.00 0.00 74 11.8
20260506191111 51 59 0.0 0.0 0.00 0.00 0.00 73 11.4
20260506190111 51 59 0.0 0.0 0.00 0.00 0.00 72 11.3
20260506185111 52 59 0.0 0.0 0.00 0.00 0.00 70 11.3
20260506183111 53 78 1.0 2.0 0.00 0.00 0.00 65 11.0
20260506182111 54 35 2.0 2.0 0.00 0.00 0.00 63 10.9
20260506180111 54 30 2.0 6.0 0.00 0.00 0.00 63 10.7
20260506175111 54 5 1.0 2.0 0.00 0.00 0.00 62 10.7
20260506174111 55 27 3.0 6.0 0.00 0.00 0.00 57 10.6
20260506172111 55 37 3.0 5.0 0.00 0.00 0.00 57 10.5
20260506171111 55 53 2.0 6.0 0.00 0.00 0.00 56 10.4
20260506170111 56 37 2.0 2.0 0.00 0.00 0.00 56 10.4
20260506164111 56 53 3.0 5.0 0.00 0.00 0.00 53 10.3
20260506161111 58 42 2.0 7.0 0.00 0.00 0.00 53 10.3
20260506160111 58 55 2.0 5.0 0.00 0.00 0.00 51 10.3
20260506155112 58 49 2.0 7.0 0.00 0.00 0.00 52 10.3
20260506154111 59 55 5.0 15.0 0.00 0.00 0.00 49 10.3
20260506153111 59 65 3.0 7.0 0.00 0.00 0.00 52 10.3
20260506152111 60 56 4.0 10.0 0.00 0.00 0.00 53 10.2